Hourly Data Report for May 05, 2021

ATIKOKAN (AUT)
ONTARIO
Current Station Operator: ECCC - MSC

48°45'40.000" N
91°37'41.000" W
389.30 m
6020LPQ
71747
WCH

Download Data

Hourly Data (May 2021)
Hourly Data Report for May 5, 2021
TIME
LST
Temp Definition
°C
Dew Point Definition
°C
Rel Hum Definition
%
Precip. Amount Definition
mm

Wind Dir Definition
10's deg

Wind Spd Definition
km/h
Visibility Definition
km
Stn Press Definition
kPa
Hmdx Definition


Wind Chill Definition


Weather Definition


00:00 -0.6 -0.9 98 0.0   0   97.22     LegendNANA
01:00 -0.8 -1.0 98 0.0 5 1   97.21   -1 LegendNANA
02:00 -0.7 -1.0 98 0.0 6 2   97.21   -1 LegendNANA
03:00 -1.3 -1.5 98 0.0 0 1   97.21   -2 LegendNANA
04:00 -1.6 -1.8 98 0.0 5 3   97.21   -3 LegendNANA
05:00 -1.5 -1.7 99 0.0 0 1   97.26   -2 LegendNANA
06:00 -1.0 -1.1 99 0.0 0 1   97.30   -1 LegendNANA
07:00 1.5 1.4 99 0.0 13 1   97.33     LegendNANA
08:00 4.4 0.8 78 0.0 23 3   97.34     LegendNANA
09:00 4.9 -0.2 69 0.0 30 4   97.35     LegendNANA
10:00 6.1 -2.5 54 0.0 33 9   97.35     LegendNANA
11:00 5.2 -3.0 55 0.0 31 14   97.39     LegendNANA
12:00 6.4 -4.2 47 0.0 33 9   97.36     LegendNANA
13:00 6.9 -4.4 44 0.0 31 10   97.36     LegendNANA
14:00 7.3 -4.2 44 0.0 33 10   97.35     LegendNANA
15:00 8.0 -3.2 45 0.0 34 12   97.35     LegendNANA
16:00 7.9 -5.4 38 0.0 34 12   97.35     LegendNANA
17:00 8.5 -3.0 44 0.0 34 9   97.36     LegendNANA
18:00 7.1 -4.2 45 0.0 33 11   97.37     LegendNANA
19:00 5.8 -2.2 56 0.0 2 2   97.37     LegendNANA
20:00 2.3 -1.9 74 0.0   0   97.39     LegendNANA
21:00 0.0 -1.7 88 0.0   0   97.41     LegendNANA
22:00 -1.3 -2.0 95 0.0 0 1   97.44   -2 LegendNANA
23:00 -2.2 -2.7 96 0.0 5 1   97.42   -3 LegendNANA

Notes on Data Quality.

Legend

  • E = Estimated
  • M = Missing
  • NA = Not Available*
  • [empty] = Indicates an unobserved value
Date modified: